User: anonymous
Location: Oshawa
(43.9000°N, 78.8670°W)
Time: 23:15:33
(UTC-04:00)
Language:

Cosmos 1408 Rocket - Orbit

View from above orbital plane
View from above orbital plane
View from above satellite
View from above satellite

Ground track
Ground track

The orbit data is extracted from the following two-line orbital elements,

1 13553U 82092B   14108.93393987  .00000850  00000-0  10028-3 0  8764
2 13553 082.5703 230.0162 0020398 259.3147 240.2421 14.83486392705714
Epoch (UTC): 18 April 2014 22:24:52
Eccentricity: 0.0020398
inclination: 82.5703°
perigee height: 604 km
apogee height: 632 km
right ascension of ascending node: 230.0162°
argument of perigee: 259.3147°
revolutions per day: 14.83486392
mean anomaly at epoch: 240.2421°
orbit number at epoch: 70571

The dashed part of the orbit path shows where the satellite is in the earth's shadow,  

DLR